TURKSAT 4A

Last updated on Thu Oct 30 2025 00:02:49 GMT+0000 (Coordinated Universal Time)

1 39522U 14007A 25302.47939774 .00000156 00000+0 00000+0 0 9995 2 39522 0.0415 295.1897 0003816 316.7160 0.7663 1.00270828 42653
UTC large
Height (km)
Speed (km/s)
/
Latitude / Longitude
Inclination (degrees)
Orbital Period (minutes)
Azimuth
Elevation
Range (km)
Doppler Factor

Next 0 passes for location: London (51.5072 / 0.1276)

Sorry there are no passes over London.